Time,Miliseconds,Temperature,External Temperature,Humidity,External Humidity
2018-07-17 00:57:03,32,29.77,29.665,62.48,63.047
2018-07-17 00:57:06,32,29.81,29.692,62.34,62.846
2018-07-17 00:57:08,32,29.86,29.692,62.18,62.713
2018-07-17 00:57:10,32,29.84,29.734,62.12,62.597
2018-07-17 00:57:12,32,29.86,29.751,62.04,62.565
2018-07-17 00:57:14,32,29.9,29.764,62.02,62.487
2018-07-17 00:57:16,32,29.9,29.764,61.93,62.42
2018-07-17 00:57:18,32,29.89,29.791,61.92,62.333
2018-07-17 00:57:20,32,29.89,29.777,61.93,62.368
2018-07-17 00:57:22,31,29.91,29.777,61.87,62.336
2018-07-17 00:57:24,32,29.9,29.777,61.88,62.336
2018-07-17 00:57:26,32,29.89,29.791,61.88,62.277
2018-07-17 00:57:28,32,29.89,29.777,61.82,62.292
2018-07-17 00:57:30,32,29.91,29.791,61.87,62.274
2018-07-17 00:57:32,32,29.86,29.751,61.89,62.292
2018-07-17 00:57:34,32,29.9,29.764,61.87,62.345
2018-07-17 00:57:36,32,29.9,29.809,61.87,62.315
2018-07-17 00:57:38,31,29.83,29.708,61.86,62.277
2018-07-17 00:57:40,32,29.91,29.823,61.93,62.391
2018-07-17 00:57:42,32,29.91,29.791,61.94,62.377
2018-07-17 00:57:44,31,29.93,29.809,61.87,62.347
2018-07-17 00:57:46,32,29.93,29.823,61.89,62.295
2018-07-17 00:57:48,32,29.93,29.823,61.86,62.319
2018-07-17 00:57:50,32,29.91,29.836,61.85,62.306
2018-07-17 00:57:52,32,29.93,29.809,61.86,62.254
2018-07-17 00:57:54,32,29.94,29.849,61.81,62.26
2018-07-17 00:57:56,32,29.94,29.823,61.83,62.255
2018-07-17 00:57:58,32,29.96,29.836,61.79,62.254
2018-07-17 00:58:00,32,29.93,29.865,61.77,62.242
2018-07-17 00:58:02,32,29.91,29.823,61.8,62.228
2018-07-17 00:58:04,31,29.93,29.836,61.77,62.196
2018-07-17 00:58:06,32,29.94,29.865,61.78,62.191
2018-07-17 00:58:09,32,29.9,29.777,61.75,62.176
2018-07-17 00:58:11,32,29.93,29.823,61.77,62.228
2018-07-17 00:58:13,32,29.94,29.836,61.81,62.219
2018-07-17 00:58:15,33,29.84,29.751,61.78,62.228
2018-07-17 00:58:17,33,29.93,29.836,61.81,62.283
2018-07-17 00:58:19,32,29.96,29.823,61.84,62.274
2018-07-17 00:58:21,32,29.97,29.836,61.79,62.217
2018-07-17 00:58:23,32,29.94,29.836,61.77,62.194
2018-07-17 00:58:25,32,29.94,29.849,61.79,62.185
2018-07-17 00:58:27,32,29.94,29.836,61.72,62.232
2018-07-17 00:58:29,32,29.96,29.849,61.74,62.182
2018-07-17 00:58:31,32,29.97,29.836,61.74,62.164
2018-07-17 00:58:33,32,29.96,29.865,61.69,62.176
2018-07-17 00:58:35,32,29.97,29.865,61.7,62.164
2018-07-17 00:58:37,32,29.96,29.849,61.7,62.155
2018-07-17 00:58:39,32,29.96,29.879,61.71,62.112
2018-07-17 00:58:41,32,29.97,29.849,61.69,62.171
2018-07-17 00:58:43,32,29.97,29.865,61.7,62.139
2018-07-17 00:58:46,32,29.91,29.823,61.69,62.126
2018-07-17 00:58:48,32,29.96,29.836,61.75,62.19
2018-07-17 00:58:50,32,29.96,29.865,61.75,62.144
2018-07-17 00:58:52,30,29.89,29.721,61.74,62.173
2018-07-17 00:58:54,32,29.96,29.823,61.75,62.24
2018-07-17 00:58:56,32,29.96,29.849,61.78,62.245
2018-07-17 00:58:58,32,29.97,29.849,61.75,62.177
2018-07-17 00:59:00,32,29.97,29.849,61.69,62.177
2018-07-17 00:59:02,32,29.97,29.865,61.73,62.155
2018-07-17 00:59:04,32,29.97,29.849,61.67,62.155
2018-07-17 00:59:06,32,30.0,29.879,61.64,62.121
2018-07-17 00:59:08,32,29.98,29.849,61.66,62.1
2018-07-17 00:59:10,32,29.98,29.865,61.63,62.103
2018-07-17 00:59:12,32,30.0,29.836,61.63,62.071
2018-07-17 00:59:14,32,29.98,29.879,61.64,62.103
2018-07-17 00:59:16,32,30.01,29.865,61.65,62.103
2018-07-17 00:59:18,32,29.98,29.879,61.66,62.126
2018-07-17 00:59:20,32,29.98,29.865,61.62,62.104
2018-07-17 00:59:22,32,29.94,29.823,61.58,62.061
2018-07-17 00:59:24,32,29.97,29.865,61.66,62.1
2018-07-17 00:59:26,32,29.98,29.892,61.61,62.094
2018-07-17 00:59:29,29,29.9,29.751,61.66,62.084
2018-07-17 00:59:31,32,29.97,29.849,61.7,62.182
2018-07-17 00:59:33,32,29.97,29.879,61.66,62.148
2018-07-17 00:59:35,32,30.0,29.879,61.67,62.126
2018-07-17 00:59:37,32,30.0,29.892,61.62,62.118
2018-07-17 00:59:39,32,30.01,29.879,61.62,62.066
2018-07-17 00:59:41,32,30.03,29.892,61.61,62.081
2018-07-17 00:59:43,32,29.98,29.892,61.61,62.081
2018-07-17 00:59:45,32,30.01,29.879,61.58,62.071
2018-07-17 00:59:47,32,30.0,29.879,61.54,62.04
2018-07-17 00:59:49,32,30.01,29.879,61.59,62.007
2018-07-17 00:59:51,32,30.0,29.892,61.54,62.04
2018-07-17 00:59:53,32,30.0,29.865,61.55,62.049
2018-07-17 00:59:55,32,30.03,29.892,61.59,62.061
2018-07-17 00:59:57,32,30.01,29.879,61.57,62.052
2018-07-17 00:59:59,30,29.94,29.823,61.55,62.036
2018-07-17 01:00:01,32,30.01,29.865,61.56,62.058
2018-07-17 01:00:03,32,30.01,29.879,61.57,62.049
2018-07-17 01:00:06,32,29.94,29.791,61.57,62.04
2018-07-17 01:00:08,32,30.0,29.849,61.58,62.094
2018-07-17 01:00:10,31,30.0,29.905,61.56,62.084
2018-07-17 01:00:12,32,30.03,29.879,61.54,62.084
2018-07-17 01:00:14,32,30.05,29.892,61.55,62.007
2018-07-17 01:00:16,32,30.01,29.905,61.51,62.017
2018-07-17 01:00:18,32,30.03,29.892,61.49,61.997
2018-07-17 01:00:20,32,30.04,29.879,61.45,61.976
2018-07-17 01:00:22,32,30.03,29.892,61.45,61.939
2018-07-17 01:00:24,32,30.03,29.892,61.46,61.975
2018-07-17 01:00:26,32,30.03,29.892,61.48,61.997
2018-07-17 01:00:28,32,30.05,29.892,61.46,61.962
2018-07-17 01:00:30,32,30.04,29.905,61.48,62.026
2018-07-17 01:00:32,32,30.04,29.879,61.49,62.007
2018-07-17 01:00:34,32,30.04,29.905,61.45,61.985
2018-07-17 01:00:36,32,30.0,29.823,61.47,61.997
2018-07-17 01:00:38,32,30.03,29.879,61.46,61.994
2018-07-17 01:00:40,32,30.04,29.865,61.48,62.007
2018-07-17 01:00:42,32,29.97,29.764,61.45,61.985
2018-07-17 01:00:44,32,30.03,29.865,61.5,62.075
2018-07-17 01:00:47,32,30.03,29.849,61.5,62.034
2018-07-17 01:00:49,32,30.04,29.865,61.47,62.036
2018-07-17 01:00:51,32,30.01,29.865,61.49,62.036
2018-07-17 01:00:53,32,30.03,29.879,61.45,62.017
2018-07-17 01:00:55,32,30.03,29.892,61.47,62.036
2018-07-17 01:00:57,32,30.05,29.879,61.47,62.004
2018-07-17 01:00:59,32,30.03,29.865,61.43,62.017
2018-07-17 01:01:01,32,30.04,29.849,61.44,62.017
2018-07-17 01:01:03,32,30.03,29.865,61.42,62.052
2018-07-17 01:01:05,32,30.04,29.865,61.49,62.036
2018-07-17 01:01:07,32,30.03,29.879,61.49,62.052
2018-07-17 01:01:09,32,30.04,29.905,61.5,62.049
2018-07-17 01:01:11,32,30.04,29.905,61.47,62.048
2018-07-17 01:01:13,32,29.98,29.791,61.44,62.016
2018-07-17 01:01:15,32,30.03,29.865,61.52,62.09
2018-07-17 01:01:17,32,30.03,29.892,61.53,62.058
2018-07-17 01:01:19,32,29.96,29.777,61.5,62.045
2018-07-17 01:01:21,32,30.0,29.836,61.55,62.126
2018-07-17 01:01:23,32,30.03,29.879,61.52,62.095
2018-07-17 01:01:25,32,30.03,29.879,61.51,62.058
2018-07-17 01:01:27,32,30.03,29.849,61.46,62.016
2018-07-17 01:01:29,32,30.04,29.879,61.45,61.988
2018-07-17 01:01:31,32,30.01,29.865,61.39,61.994
2018-07-17 01:01:33,32,30.03,29.865,61.39,61.994
2018-07-17 01:01:35,32,30.04,29.865,61.41,61.997
2018-07-17 01:01:38,32,30.04,29.892,61.44,62.004
2018-07-17 01:01:40,32,30.01,29.892,61.46,62.025
2018-07-17 01:01:42,32,30.04,29.892,61.44,62.013
2018-07-17 01:01:44,32,30.04,29.879,61.48,62.026
2018-07-17 01:01:46,32,30.03,29.892,61.48,61.993
2018-07-17 01:01:48,32,30.01,29.879,61.44,62.002
2018-07-17 01:01:50,32,29.98,29.809,61.49,62.002
2018-07-17 01:01:52,32,30.01,29.849,61.52,62.086
2018-07-17 01:01:54,32,30.03,29.865,61.53,62.063
2018-07-17 01:01:56,29,29.94,29.751,61.52,62.084
2018-07-17 01:01:58,32,30.01,29.849,61.57,62.159
2018-07-17 01:02:00,32,30.01,29.879,61.59,62.148
2018-07-17 01:02:02,32,30.04,29.865,61.53,62.072
2018-07-17 01:02:04,32,30.03,29.879,61.49,62.048
2018-07-17 01:02:06,32,30.04,29.879,61.48,62.016
2018-07-17 01:02:09,32,30.03,29.879,61.5,62.086
2018-07-17 01:02:11,32,30.03,29.879,61.43,62.04
2018-07-17 01:02:13,32,30.03,29.892,61.47,62.052
2018-07-17 01:02:15,32,30.04,29.865,61.49,62.007
2018-07-17 01:02:17,32,30.05,29.879,61.42,61.971
2018-07-17 01:02:19,32,30.04,29.892,61.42,61.967
2018-07-17 01:02:21,32,30.04,29.879,61.41,61.947
2018-07-17 01:02:23,32,30.04,29.879,61.39,61.926
2018-07-17 01:02:25,32,30.03,29.879,61.42,61.971
2018-07-17 01:02:27,32,29.98,29.791,61.44,61.975
2018-07-17 01:02:29,32,30.04,29.892,61.46,62.026
2018-07-17 01:02:31,32,30.04,29.879,61.5,62.016
2018-07-17 01:02:33,30,29.94,29.764,61.47,62.029
2018-07-17 01:02:35,32,30.03,29.849,61.5,62.1
2018-07-17 01:02:37,32,30.03,29.865,61.5,62.061
2018-07-17 01:02:39,32,30.01,29.865,61.48,62.017
2018-07-17 01:02:41,31,30.03,29.865,61.43,61.971
2018-07-17 01:02:43,33,30.03,29.865,61.43,61.984
2018-07-17 01:02:45,32,30.01,29.879,61.42,62.013
2018-07-17 01:02:47,32,30.04,29.849,61.42,61.994
2018-07-17 01:02:49,33,30.04,29.879,61.41,62.026
2018-07-17 01:02:51,32,30.07,29.865,61.41,62.077
2018-07-17 01:02:54,32,30.05,29.879,61.48,62.036
2018-07-17 01:02:56,32,30.04,29.892,61.42,62.013
2018-07-17 01:02:58,32,30.04,29.865,61.43,62.026
2018-07-17 01:03:00,32,30.03,29.892,61.39,61.975
2018-07-17 01:03:02,31,30.04,29.892,61.41,61.999
2018-07-17 01:03:04,32,30.0,29.823,61.43,61.961
2018-07-17 01:03:06,32,30.03,29.892,61.44,62.022
2018-07-17 01:03:08,32,30.03,29.892,61.47,62.017
2018-07-17 01:03:10,32,29.97,29.764,61.49,61.979
2018-07-17 01:03:12,32,30.03,29.865,61.51,62.049
2018-07-17 01:03:14,33,30.04,29.879,61.51,62.081
2018-07-17 01:03:16,32,30.05,29.865,61.48,62.031
2018-07-17 01:03:18,32,30.04,29.892,61.48,62.026
2018-07-17 01:03:20,32,30.04,29.892,61.43,62.017
2018-07-17 01:03:22,32,30.05,29.892,61.43,61.994
2018-07-17 01:03:24,33,30.05,29.879,61.4,61.965
2018-07-17 01:03:26,32,30.04,29.879,61.39,61.965
2018-07-17 01:03:28,32,30.05,29.905,61.39,61.965
2018-07-17 01:03:30,32,30.04,29.879,61.37,61.88
2018-07-17 01:03:32,32,30.04,29.879,61.36,61.949
2018-07-17 01:03:34,32,30.05,29.879,61.37,61.903
2018-07-17 01:03:36,33,30.03,29.865,61.36,61.939
2018-07-17 01:03:38,32,30.05,29.879,61.37,61.915
2018-07-17 01:03:41,32,29.98,29.823,61.4,61.93
2018-07-17 01:03:43,32,30.03,29.879,61.43,61.962
2018-07-17 01:03:45,32,30.05,29.892,61.46,61.971
2018-07-17 01:03:47,32,29.97,29.791,61.42,61.979
2018-07-17 01:03:49,32,30.01,29.865,61.46,62.057
2018-07-17 01:03:51,31,30.03,29.879,61.46,62.002
2018-07-17 01:03:53,32,30.04,29.892,61.43,62.016
2018-07-17 01:03:55,33,30.04,29.879,61.4,62.026
2018-07-17 01:03:57,32,30.04,29.879,61.4,61.999
2018-07-17 01:03:59,32,30.04,29.879,61.43,61.985
2018-07-17 01:04:01,32,30.04,29.892,61.44,61.997
2018-07-17 01:04:03,32,30.04,29.879,61.43,62.008
2018-07-17 01:04:05,32,30.07,29.892,61.44,62.007
2018-07-17 01:04:07,31,30.08,29.879,61.45,62.008
2018-07-17 01:04:09,33,30.05,29.865,61.38,62.026
2018-07-17 01:04:11,32,30.08,29.879,61.39,61.997
2018-07-17 01:04:13,32,30.07,29.905,61.43,62.017
2018-07-17 01:04:15,32,30.05,29.892,61.43,61.999
2018-07-17 01:04:17,32,30.01,29.836,61.42,62.008
2018-07-17 01:04:19,32,30.03,29.849,61.38,61.994
2018-07-17 01:04:21,31,30.05,29.879,61.42,62.016
2018-07-17 01:04:24,30,30.0,29.764,61.41,61.965
2018-07-17 01:04:26,32,30.05,29.879,61.48,62.1
2018-07-17 01:04:28,32,30.05,29.865,61.49,62.071
2018-07-17 01:04:30,32,30.07,29.865,61.41,62.072
2018-07-17 01:04:32,32,30.05,29.865,61.4,62.002
2018-07-17 01:04:34,32,30.07,29.879,61.4,62.039
2018-07-17 01:04:36,32,30.05,29.865,61.34,61.997
2018-07-17 01:04:38,32,30.04,29.865,61.34,61.984
2018-07-17 01:04:40,32,30.08,29.892,61.31,61.939
2018-07-17 01:04:42,32,30.07,29.879,61.33,61.984
2018-07-17 01:04:44,32,30.07,29.879,61.35,61.981
2018-07-17 01:04:46,32,30.05,29.879,61.35,61.984
2018-07-17 01:04:48,31,30.04,29.879,61.39,62.004
2018-07-17 01:04:50,32,30.07,29.879,61.35,61.994
2018-07-17 01:04:52,32,30.04,29.879,61.36,61.993
2018-07-17 01:04:54,32,30.01,29.809,61.36,62.011
2018-07-17 01:04:56,32,30.05,29.879,61.45,62.066
2018-07-17 01:04:58,32,30.04,29.865,61.45,62.071
2018-07-17 01:05:01,30,29.94,29.751,61.43,62.061
2018-07-17 01:05:03,32,30.04,29.836,61.48,62.155
2018-07-17 01:05:05,32,30.03,29.849,61.45,62.141
2018-07-17 01:05:07,32,30.04,29.892,61.49,62.107
2018-07-17 01:05:09,32,30.04,29.935,61.43,62.69
2018-07-17 01:05:11,32,30.05,29.892,61.43,62.512
2018-07-17 01:05:13,32,30.05,29.879,61.4,62.263
2018-07-17 01:05:15,32,30.05,29.879,61.4,62.113
2018-07-17 01:05:17,32,30.04,29.879,61.37,62.075
2018-07-17 01:05:19,32,30.05,29.892,61.39,62.017
2018-07-17 01:05:21,32,30.04,29.865,61.39,62.008
2018-07-17 01:05:23,32,30.04,29.905,61.39,61.971
2018-07-17 01:05:25,32,30.05,29.892,61.38,61.947
2018-07-17 01:05:27,32,30.07,29.892,61.37,61.953
2018-07-17 01:05:29,32,30.04,29.879,61.34,61.962
2018-07-17 01:05:31,32,30.01,29.823,61.36,61.984
2018-07-17 01:05:33,32,30.04,29.865,61.45,62.004
2018-07-17 01:05:35,32,30.04,29.879,61.48,62.016
2018-07-17 01:05:37,32,29.98,29.777,61.43,62.02
2018-07-17 01:05:40,32,30.03,29.865,61.48,62.034
2018-07-17 01:05:42,32,30.04,29.879,61.42,62.039
2018-07-17 01:05:44,32,30.05,29.865,61.39,61.993
2018-07-17 01:05:46,32,30.05,29.879,61.41,62.002
2018-07-17 01:05:48,32,30.03,29.879,61.39,61.988
2018-07-17 01:05:50,32,30.05,29.892,61.38,61.958
2018-07-17 01:05:52,32,30.05,29.865,61.38,61.958
2018-07-17 01:05:54,32,30.05,29.892,61.34,61.97
2018-07-17 01:05:56,32,30.07,29.879,61.37,61.981
2018-07-17 01:05:58,32,30.04,29.892,61.35,61.97
2018-07-17 01:06:00,32,30.04,29.865,61.34,61.961
2018-07-17 01:06:02,32,30.05,29.879,61.34,61.935
2018-07-17 01:06:04,32,30.04,29.892,61.33,61.929
2018-07-17 01:06:06,32,30.04,29.865,61.34,61.961
2018-07-17 01:06:08,31,30.0,29.823,61.34,61.894
2018-07-17 01:06:10,32,30.04,29.879,61.37,61.993
2018-07-17 01:06:12,32,30.04,29.879,61.4,61.971
2018-07-17 01:06:14,32,29.96,29.791,61.37,61.976
2018-07-17 01:06:16,32,30.03,29.836,61.44,62.045
2018-07-17 01:06:18,32,30.03,29.865,61.41,62.025
2018-07-17 01:06:20,32,30.03,29.865,61.39,62.013
2018-07-17 01:06:22,32,30.07,29.879,61.4,61.97
2018-07-17 01:06:24,32,30.05,29.879,61.38,61.947
2018-07-17 01:06:26,32,30.05,29.865,61.39,61.924
2018-07-17 01:06:28,31,30.05,29.879,61.4,62.017
2018-07-17 01:06:30,32,30.05,29.865,61.37,61.961
2018-07-17 01:06:32,32,30.05,29.879,61.34,61.985
2018-07-17 01:06:34,32,30.05,29.892,61.37,61.965
2018-07-17 01:06:36,32,30.04,29.879,61.37,61.971
2018-07-17 01:06:38,32,30.05,29.879,61.34,61.949
2018-07-17 01:06:40,32,30.05,29.892,61.37,61.949
2018-07-17 01:06:42,33,30.04,29.892,61.34,61.952
2018-07-17 01:06:45,32,30.0,29.809,61.31,61.942
2018-07-17 01:06:47,32,30.04,29.865,61.4,61.993
2018-07-17 01:06:49,32,30.05,29.879,61.39,62.004
2018-07-17 01:06:51,32,29.97,29.764,61.39,61.997
2018-07-17 01:06:53,32,30.03,29.879,61.48,62.045
2018-07-17 01:06:55,32,30.05,29.865,61.44,62.061
2018-07-17 01:06:57,32,30.05,29.892,61.43,62.09
2018-07-17 01:06:59,32,30.07,29.879,61.46,62.095
2018-07-17 01:07:01,32,30.03,29.879,61.4,62.016
2018-07-17 01:07:03,32,30.05,29.879,61.4,61.994
2018-07-17 01:07:05,32,30.07,29.879,61.42,62.016
2018-07-17 01:07:07,32,30.04,29.892,61.36,61.938
2018-07-17 01:07:09,32,30.05,29.892,61.34,61.952
2018-07-17 01:07:11,32,30.07,29.892,61.31,61.971
2018-07-17 01:07:13,32,30.04,29.892,61.36,61.971
2018-07-17 01:07:15,32,30.05,29.865,61.33,61.971
2018-07-17 01:07:17,32,30.08,29.892,61.31,61.971
2018-07-17 01:07:19,32,30.07,29.879,61.4,61.975
2018-07-17 01:07:22,32,30.01,29.836,61.35,61.981
2018-07-17 01:07:24,32,30.05,29.865,61.38,62.025
2018-07-17 01:07:26,32,30.03,29.905,61.38,62.058
2018-07-17 01:07:28,32,29.96,29.777,61.37,61.994
2018-07-17 01:07:30,32,30.03,29.865,61.45,62.081
2018-07-17 01:07:32,32,30.05,29.865,61.45,62.071
2018-07-17 01:07:34,32,30.04,29.892,61.43,62.052
2018-07-17 01:07:36,32,30.05,29.879,61.43,62.004
2018-07-17 01:07:38,32,30.04,29.892,61.37,62.007
2018-07-17 01:07:40,32,30.07,29.879,61.35,61.979
2018-07-17 01:07:42,31,30.07,29.879,61.37,61.953
2018-07-17 01:07:44,31,30.07,29.892,61.37,61.962
2018-07-17 01:07:46,32,30.05,29.892,61.36,61.985
2018-07-17 01:07:48,32,30.05,29.879,61.37,61.976
2018-07-17 01:07:50,32,30.05,29.921,61.35,61.93
2018-07-17 01:07:52,32,30.05,29.892,61.32,61.939
2018-07-17 01:07:54,32,30.04,29.905,61.34,61.935
2018-07-17 01:07:56,32,30.05,29.905,61.38,61.962
2018-07-17 01:07:58,32,30.01,29.849,61.35,61.953
2018-07-17 01:08:00,32,30.04,29.892,61.38,61.997
2018-07-17 01:08:03,32,30.04,29.879,61.38,61.965
2018-07-17 01:08:05,29,29.97,29.791,61.43,61.985
2018-07-17 01:08:07,32,30.03,29.879,61.49,62.072
2018-07-17 01:08:09,32,30.05,29.905,61.44,62.017
2018-07-17 01:08:11,32,30.07,29.892,61.47,62.031
2018-07-17 01:08:13,32,30.07,29.905,61.4,61.988
2018-07-17 01:08:15,32,30.07,29.921,61.38,61.985
2018-07-17 01:08:17,32,30.09,29.905,61.38,61.967
2018-07-17 01:08:19,32,30.05,29.892,61.37,61.906
2018-07-17 01:08:21,32,30.07,29.892,61.35,61.953
2018-07-17 01:08:23,32,30.07,29.905,61.37,61.944
2018-07-17 01:08:25,32,30.05,29.921,61.36,61.976
2018-07-17 01:08:27,32,30.05,29.892,61.32,61.889
2018-07-17 01:08:29,32,30.07,29.905,61.34,61.939
2018-07-17 01:08:31,32,30.05,29.892,61.32,61.907
2018-07-17 01:08:33,32,30.05,29.892,61.34,61.874
2018-07-17 01:08:35,32,30.01,29.823,61.32,61.897
2018-07-17 01:08:37,32,30.05,29.865,61.31,61.938
2018-07-17 01:08:39,32,30.05,29.892,61.35,61.92
2018-07-17 01:08:42,32,30.0,29.791,61.34,61.897
2018-07-17 01:08:44,32,30.04,29.865,61.41,62.022
2018-07-17 01:08:46,32,30.05,29.892,61.37,61.985
2018-07-17 01:08:48,32,30.04,29.892,61.38,61.939
2018-07-17 01:08:50,32,30.07,29.892,61.38,61.988
2018-07-17 01:08:52,32,30.08,29.905,61.38,61.965
2018-07-17 01:08:54,32,30.07,29.892,61.34,61.988
2018-07-17 01:08:56,32,30.09,29.892,61.35,61.91
2018-07-17 01:08:58,32,30.05,29.892,61.31,61.944
2018-07-17 01:09:00,32,30.08,29.892,61.28,61.898
2018-07-17 01:09:02,32,30.08,29.892,61.33,61.898
2018-07-17 01:09:04,32,30.05,29.905,61.29,61.848
2018-07-17 01:09:06,32,30.08,29.905,61.3,61.898
2018-07-17 01:09:08,32,30.08,29.905,61.26,61.907
2018-07-17 01:09:10,32,30.08,29.892,61.28,61.906
2018-07-17 01:09:12,32,30.01,29.849,61.25,61.878
2018-07-17 01:09:14,32,30.05,29.905,61.31,61.907
2018-07-17 01:09:16,32,30.07,29.905,61.32,61.92
2018-07-17 01:09:18,32,30.0,29.809,61.25,61.903
2018-07-17 01:09:20,32,30.04,29.905,61.36,61.965
2018-07-17 01:09:22,32,30.05,29.905,61.31,61.965
2018-07-17 01:09:24,32,30.05,29.921,61.32,61.884
2018-07-17 01:09:26,32,30.05,29.892,61.35,61.884
2018-07-17 01:09:28,32,30.07,29.892,61.26,61.866
2018-07-17 01:09:30,32,30.07,29.921,61.27,61.828
2018-07-17 01:09:32,32,30.07,29.892,61.25,61.862
2018-07-17 01:09:34,32,30.08,29.892,61.21,61.83
2018-07-17 01:09:36,32,30.07,29.892,61.24,61.862
2018-07-17 01:09:38,32,30.05,29.905,61.22,61.866
2018-07-17 01:09:41,32,30.07,29.905,61.24,61.875
2018-07-17 01:09:43,32,30.08,29.892,61.27,61.865
2018-07-17 01:09:45,32,30.07,29.905,61.26,61.852
2018-07-17 01:09:47,32,30.05,29.892,61.28,61.871
2018-07-17 01:09:49,32,30.03,29.836,61.22,61.875
2018-07-17 01:09:51,32,30.07,29.905,61.29,61.907
2018-07-17 01:09:53,32,30.07,29.905,61.31,61.907
2018-07-17 01:09:55,29,29.98,29.791,61.33,61.915
2018-07-17 01:09:57,32,30.07,29.892,61.36,61.985
2018-07-17 01:09:59,32,30.07,29.921,61.39,61.953
2018-07-17 01:10:01,32,30.08,29.921,61.34,61.965
2018-07-17 01:10:03,32,30.09,29.892,61.33,61.92
2018-07-17 01:10:05,32,30.07,29.948,61.37,61.903
2018-07-17 01:10:07,32,30.09,29.905,61.28,61.857
2018-07-17 01:10:09,32,30.11,29.905,61.31,61.852
2018-07-17 01:10:11,32,30.08,29.905,61.28,61.875
2018-07-17 01:10:13,32,30.08,29.935,61.26,61.892
2018-07-17 01:10:15,32,30.11,29.921,61.25,61.855
2018-07-17 01:10:17,32,30.08,29.935,61.27,61.855
2018-07-17 01:10:19,31,30.09,29.935,61.24,61.86
2018-07-17 01:10:21,32,30.09,29.948,61.24,61.86
2018-07-17 01:10:23,32,30.12,29.935,61.26,61.883
2018-07-17 01:10:26,32,30.05,29.865,61.25,61.828
2018-07-17 01:10:28,32,30.08,29.948,61.31,61.892
2018-07-17 01:10:30,32,30.09,29.961,61.31,61.846
2018-07-17 01:10:32,32,30.03,29.849,61.3,61.848
2018-07-17 01:10:34,32,30.09,29.935,61.36,61.912
2018-07-17 01:10:36,32,30.08,29.948,61.36,61.857
2018-07-17 01:10:38,32,30.11,29.948,61.3,61.871
2018-07-17 01:10:40,31,30.11,29.935,61.31,61.848
2018-07-17 01:10:42,32,30.12,29.961,61.28,61.807
2018-07-17 01:10:44,31,30.11,29.977,61.21,61.837
2018-07-17 01:10:46,32,30.14,29.961,61.21,61.798
2018-07-17 01:10:48,32,30.12,29.961,61.15,61.796
2018-07-17 01:10:50,32,30.12,29.991,61.2,61.765
2018-07-17 01:10:52,32,30.14,29.961,61.13,61.75
2018-07-17 01:10:54,32,30.14,29.961,61.15,61.765
2018-07-17 01:10:56,32,30.14,29.961,61.14,61.72
2018-07-17 01:10:58,32,30.14,29.948,61.14,61.715
2018-07-17 01:11:00,32,30.14,29.977,61.12,61.732
2018-07-17 01:11:03,32,30.07,29.879,61.14,61.715
2018-07-17 01:11:05,32,30.11,29.935,61.17,61.738
2018-07-17 01:11:07,32,30.12,29.961,61.16,61.761
2018-07-17 01:11:09,32,30.07,29.849,61.16,61.746
2018-07-17 01:11:11,31,30.11,29.935,61.22,61.811
2018-07-17 01:11:13,32,30.12,29.948,61.19,61.828
2018-07-17 01:11:15,32,30.09,29.948,61.19,61.756
2018-07-17 01:11:17,32,30.14,29.977,61.09,61.75
2018-07-17 01:11:19,32,30.14,29.961,61.14,61.75
2018-07-17 01:11:21,31,30.12,29.977,61.13,61.75
2018-07-17 01:11:23,32,30.14,29.961,61.12,61.709
2018-07-17 01:11:25,32,30.12,29.961,61.07,61.7
2018-07-17 01:11:27,32,30.14,29.961,61.1,61.706
2018-07-17 01:11:29,32,30.15,29.977,61.05,61.66
2018-07-17 01:11:31,32,30.12,29.977,61.06,61.665
2018-07-17 01:11:33,32,30.14,29.961,61.04,61.654
2018-07-17 01:11:35,32,30.14,29.977,61.06,61.683
2018-07-17 01:11:37,32,30.14,29.961,61.11,61.636
2018-07-17 01:11:39,32,30.11,29.921,61.06,61.665
2018-07-17 01:11:41,32,30.12,29.948,61.12,61.682
2018-07-17 01:11:43,32,30.12,29.977,61.13,61.683
2018-07-17 01:11:46,32,30.07,29.879,61.12,61.692
2018-07-17 01:11:48,32,30.11,29.948,61.18,61.779
2018-07-17 01:11:50,32,30.11,29.948,61.14,61.773
2018-07-17 01:11:52,32,30.12,29.948,61.15,61.736
2018-07-17 01:11:54,32,30.12,29.935,61.08,61.714
2018-07-17 01:11:56,32,30.14,29.961,61.09,61.692
2018-07-17 01:11:58,32,30.15,29.948,61.07,61.709
2018-07-17 01:12:00,32,30.14,29.935,61.14,61.677
2018-07-17 01:12:02,33,30.12,29.961,61.12,61.678
2018-07-17 01:12:04,32,30.15,29.961,61.04,61.706
2018-07-17 01:12:06,32,30.14,29.948,61.08,61.738
2018-07-17 01:12:08,32,30.14,29.977,61.04,61.646
2018-07-17 01:12:10,32,30.14,29.961,61.05,61.688
2018-07-17 01:12:12,32,30.14,29.961,61.06,61.656
2018-07-17 01:12:14,31,30.12,29.961,61.05,61.659
2018-07-17 01:12:16,32,30.07,29.905,61.03,61.654
2018-07-17 01:12:18,32,30.14,29.935,61.1,61.692
2018-07-17 01:12:20,32,30.11,29.977,61.11,61.727
2018-07-17 01:12:22,32,30.05,29.836,61.1,61.732
2018-07-17 01:12:24,31,30.11,29.921,61.16,61.788
2018-07-17 01:12:26,32,30.11,29.935,61.16,61.747
2018-07-17 01:12:28,32,30.12,29.948,61.08,61.733
2018-07-17 01:12:30,32,30.12,29.948,61.05,61.733
2018-07-17 01:12:32,32,30.14,29.948,61.09,61.688
2018-07-17 01:12:34,32,30.12,29.921,61.07,61.756
2018-07-17 01:12:36,32,30.11,29.935,61.09,61.682
2018-07-17 01:12:38,32,30.14,29.935,61.04,61.692
2018-07-17 01:12:40,32,30.12,29.935,61.04,61.701
2018-07-17 01:12:42,32,30.14,29.921,61.07,61.711
2018-07-17 01:12:44,32,30.14,29.921,61.07,61.724
2018-07-17 01:12:47,32,30.14,29.921,61.04,61.691
2018-07-17 01:12:49,32,30.14,29.948,61.03,61.669
2018-07-17 01:12:51,32,30.12,29.935,61.02,61.7
2018-07-17 01:12:53,32,30.07,29.865,61.05,61.682
2018-07-17 01:12:55,32,30.11,29.905,61.07,61.743
2018-07-17 01:12:57,32,30.09,29.921,61.08,61.755
2018-07-17 01:12:59,32,30.03,29.791,61.1,61.773
2018-07-17 01:13:01,32,30.09,29.921,61.16,61.855
2018-07-17 01:13:03,32,30.12,29.921,61.16,61.798
2018-07-17 01:13:05,32,30.08,29.921,61.12,61.81
2018-07-17 01:13:07,32,30.09,29.905,61.12,61.778
2018-07-17 01:13:09,32,30.12,29.935,61.1,61.733
2018-07-17 01:13:11,32,30.09,29.905,61.05,61.756
2018-07-17 01:13:13,32,30.11,29.905,61.09,61.695
2018-07-17 01:13:15,32,30.11,29.921,61.08,61.732
2018-07-17 01:13:17,32,30.11,29.935,61.04,61.738
2018-07-17 01:13:19,32,30.09,29.921,61.05,61.769
2018-07-17 01:13:21,32,30.11,29.921,61.04,61.72
2018-07-17 01:13:23,32,30.11,29.905,61.06,61.709
2018-07-17 01:13:25,32,30.12,29.905,61.05,61.769
2018-07-17 01:13:27,32,30.09,29.921,61.06,61.755
2018-07-17 01:13:30,32,30.07,29.836,61.11,61.788
2018-07-17 01:13:32,32,30.11,29.892,61.15,61.828
2018-07-17 01:13:34,32,30.09,29.905,61.16,61.81
2018-07-17 01:13:36,32,30.03,29.791,61.19,61.814
2018-07-17 01:13:38,32,30.08,29.892,61.21,61.883
2018-07-17 01:13:40,32,30.11,29.921,61.21,61.888
2018-07-17 01:13:42,32,30.11,29.892,61.15,61.842
2018-07-17 01:13:44,32,30.11,29.892,61.14,61.807